GFSFLT2_850_rhum_039.txt.gz
RH
22 20 19 18 14 12 15 16 20 25 21 18 30 40 39 48 50 48 46 40 46 44 42 35 38 34 35 41 42 25 27 57
21 26 32 23 15 12 11 14 15 16 25 44 46 45 49 52 55 55 50 45 46 40 35 33 35 37 37 42 46 53 57 61
33 36 31 39 34 26 27 29 32 36 44 49 48 51 59 55 52 56 57 52 49 48 42 39 37 38 38 40 43 45 44 52
56 53 30 51 59 62 60 55 53 52 47 59 60 50 49 50 55 56 55 52 50 48 46 44 47 47 46 45 44 45 48 48
52 53 38 51 56 63 66 63 58 58 56 60 66 56 54 66 60 56 51 46 49 50 49 53 56 54 52 49 49 50 48 46
59 52 34 46 55 59 56 54 57 57 57 56 66 66 55 54 53 49 48 49 52 54 57 60 61 57 55 56 59 59 60 58
59 45 25 24 28 39 47 48 46 54 66 68 70 69 64 46 52 50 47 50 55 57 58 58 59 60 56 57 65 68 69 70
59 47 33 32 29 41 44 43 61 62 64 68 73 75 70 57 49 44 45 49 54 59 60 56 53 53 52 56 59 64 67 74
58 49 37 41 41 48 46 50 51 52 58 57 67 70 63 56 49 58 52 53 53 53 52 54 55 55 58 59 64 65 70 78
63 52 66 54 60 62 60 63 66 67 65 66 67 63 61 64 66 67 65 62 58 54 55 58 61 58 53 56 58 56 56 54
63 60 60 67 82 67 64 64 70 63 61 62 65 68 72 72 71 68 66 66 65 63 65 66 64 52 45 40 35 31 27 25
62 76 76 77 81 84 72 66 65 63 63 64 68 70 72 70 69 70 68 67 68 68 65 58 55 54 49 42 33 23 17 24
60 69 82 77 78 82 78 71 65 59 57 60 62 63 65 67 68 69 67 64 61 58 56 55 56 55 48 32 18 16 36 43
57 56 56 59 59 61 61 59 59 59 59 61 65 64 61 58 57 59 61 62 64 64 61 51 40 37 46 54 55 41 41 61
48 48 47 48 51 52 51 46 38 40 42 42 47 54 61 65 66 68 72 71 64 43 31 31 36 46 69 77 80 70 76 66
46 45 47 44 36 35 35 36 39 44 50 53 62 68 70 73 75 73 68 63 51 44 48 42 54 71 70 75 84 89 91 83
47 48 45 44 44 46 49 49 50 53 58 62 73 76 74 69 69 67 64 70 73 72 56 64 88 93 89 86 81 73 74 93
54 56 54 52 51 53 51 53 56 60 65 66 64 58 56 59 64 69 74 73 74 68 68 70 77 81 80 77 77 92 99 99
59 57 55 54 52 54 56 58 61 60 55 49 44 46 56 65 69 68 44 50 64 73 78 77 76 73 77 76 77 85 93 95
56 56 55 55 56 56 57 58 56 49 45 35 31 51 62 62 63 50 48 73 76 84 86 88 85 83 81 89 89 85 94 89

GFSFLT2_850_rhum_042.txt.gz
RH
24 22 19 16 13 11 13 18 24 28 26 22 31 34 42 45 42 40 38 42 43 40 33 34 36 39 40 43 45 47 43 50
21 19 18 15 12 11 14 18 24 22 28 40 38 46 47 46 46 39 36 40 46 41 39 37 37 37 39 40 42 43 45 54
24 27 24 18 14 13 14 16 20 31 43 47 50 53 51 49 46 47 47 48 47 46 41 38 38 40 41 40 37 40 45 47
40 42 26 34 35 32 27 34 42 42 53 61 56 50 52 54 49 53 54 52 52 51 49 48 49 49 49 50 47 45 43 43
42 46 36 47 49 49 49 50 52 52 56 62 64 58 53 56 57 54 56 48 51 54 56 57 60 61 56 54 55 55 51 49
50 46 35 50 54 59 61 58 57 58 62 63 68 71 68 59 56 60 56 51 51 51 55 59 63 65 64 62 58 63 65 61
54 51 40 52 56 64 68 65 64 70 72 64 65 66 67 64 59 59 51 50 50 51 54 56 58 56 54 55 55 57 61 66
58 62 58 66 68 67 65 65 68 71 72 77 76 78 80 75 59 54 50 51 53 54 56 59 55 53 55 56 55 49 54 65
61 67 60 70 70 68 64 62 60 68 76 75 77 85 84 72 62 63 65 62 60 62 61 58 57 58 61 62 57 46 39 43
64 70 74 73 70 70 66 66 68 69 71 69 74 82 82 70 68 70 70 72 71 68 65 65 65 67 64 56 48 42 38 33
63 72 78 74 71 65 80 74 75 74 72 63 67 73 71 74 73 77 77 72 78 70 68 67 64 58 55 52 48 46 42 31
67 79 81 75 84 96 96 87 71 65 65 66 67 70 72 72 70 70 67 64 62 59 59 60 61 59 54 49 40 25 17 21
90 85 84 93 91 90 71 70 65 55 48 48 55 61 64 63 60 58 60 61 63 68 68 60 44 29 21 21 18 34 57 48
71 56 60 63 68 64 58 52 42 36 40 41 43 44 46 53 62 67 71 73 71 60 48 38 29 24 27 31 47 41 44 56
40 41 46 47 44 41 38 36 39 46 50 51 53 55 60 69 74 76 72 59 54 49 45 41 39 29 42 66 78 79 73 57
43 40 40 37 37 40 41 45 50 53 55 58 63 66 69 70 62 57 55 54 54 48 37 36 38 43 50 64 80 93 100 98
50 50 50 47 48 51 52 53 56 59 62 65 71 63 58 55 54 56 59 60 44 36 50 58 63 69 76 76 76 71 76 100
56 58 59 56 57 57 56 57 58 61 63 58 49 43 40 42 51 54 57 51 31 48 62 68 78 78 75 73 74 91 90 89
62 61 61 58 58 59 59 59 58 53 49 43 30 32 36 41 47 54 59 56 32 45 59 69 75 84 86 84 85 89 94 100
63 60 59 58 60 58 57 53 48 43 42 40 35 41 46 47 52 58 60 60 44 68 77 81 82 81 85 89 84 84 85 86

GFSFLT2_850_rhum_045.txt.gz
RH
53 34 27 23 19 18 15 19 25 31 23 23 32 40 45 42 40 42 43 41 37 34 36 37 37 34 34 35 36 35 38 48
26 22 20 16 15 16 20 25 30 24 32 39 43 45 45 42 43 41 43 45 42 40 38 37 36 38 39 37 35 35 37 39
21 20 19 16 14 15 20 24 22 35 42 48 48 49 44 44 46 48 46 45 47 45 40 40 42 43 43 43 42 41 40 37
25 29 25 18 15 17 20 23 32 46 52 53 47 48 52 54 50 53 54 51 49 46 47 46 47 49 50 48 47 46 46 45
40 40 38 42 45 36 40 52 51 55 61 62 62 60 61 56 62 64 61 53 49 49 52 53 55 58 60 58 56 53 52 53
51 46 52 60 64 65 66 67 65 67 69 71 73 76 77 72 68 66 65 54 51 51 54 58 59 60 58 54 54 54 54 52
58 49 55 62 67 71 73 73 73 76 77 81 85 87 86 80 73 67 66 55 52 52 54 56 59 60 54 53 56 59 58 52
62 62 60 70 69 71 73 76 76 72 73 72 71 76 81 88 76 63 57 54 58 59 59 64 62 57 54 57 60 62 57 50
64 69 63 74 75 78 72 72 68 60 66 68 68 71 78 84 78 68 66 68 71 69 71 69 67 66 64 65 65 60 53 50
63 74 79 81 75 70 63 62 57 65 71 72 69 70 73 85 81 79 79 79 77 76 75 74 68 65 63 60 55 52 49 47
59 72 86 82 74 66 77 72 81 87 75 70 69 70 74 78 77 74 72 70 67 63 60 60 60 59 56 52 46 38 30 24
63 78 99 90 76 83 70 95 75 66 56 50 50 51 56 60 61 61 60 62 66 67 67 64 53 40 30 22 17 13 12 13
80 79 83 80 93 83 72 68 50 38 40 40 42 45 46 47 50 57 65 69 71 67 50 39 35 31 30 56 32 28 44 58
79 68 84 79 67 65 62 49 38 44 47 51 54 54 54 56 61 66 70 65 52 44 40 36 31 27 34 64 48 55 71 61
42 42 40 46 54 52 43 40 45 51 53 56 58 59 63 64 62 56 52 44 41 38 34 30 30 33 36 74 64 54 82 71
35 39 42 44 45 46 48 49 50 55 58 61 64 70 62 54 48 41 38 36 36 37 34 29 36 76 67 80 81 98 99 83
48 46 46 48 49 52 54 55 58 62 67 65 58 51 42 32 31 31 31 34 45 47 34 35 49 64 92 84 68 96 99 99
54 57 57 58 59 58 58 61 61 58 53 49 43 33 31 38 44 45 48 52 56 56 45 51 63 69 82 93 100 98 93 98
62 62 64 61 59 60 59 57 53 50 44 42 42 37 39 48 52 58 63 67 64 57 54 68 82 83 84 89 82 80 78 84
66 64 61 60 60 57 55 54 53 50 48 48 48 51 54 54 57 64 70 70 64 62 58 69 75 77 77 70 67 66 65 67

GFSFLT2_850_rhum_048.txt.gz
RH
95 85 60 43 34 36 33 28 32 36 27 21 28 38 44 42 43 44 45 39 36 39 37 35 31 30 31 32 32 30 58 51
94 88 55 30 27 26 25 32 38 27 26 36 42 48 48 48 48 46 46 47 43 41 39 37 36 39 38 38 39 54 62 56
53 79 37 28 54 27 34 38 32 36 42 47 52 76 68 63 52 48 46 47 47 43 40 41 43 46 44 43 48 62 63 60
28 26 22 22 49 29 34 35 53 57 58 54 82 65 85 84 60 59 55 49 47 46 45 46 55 67 66 62 64 63 62 64
29 29 24 22 31 40 60 57 51 58 66 74 70 69 83 92 88 89 90 67 75 68 65 71 55 59 73 61 64 64 64 62
40 40 36 41 47 60 60 80 69 71 74 74 79 78 77 72 92 92 79 84 61 58 76 49 54 55 58 57 56 59 62 61
51 47 54 62 66 69 72 75 83 77 78 79 79 82 82 82 84 84 70 77 81 74 76 74 70 68 64 63 69 68 66 62
62 53 59 64 69 73 77 78 84 79 79 80 78 74 70 71 77 81 76 70 72 71 71 73 76 74 71 73 66 70 70 70
67 69 68 71 73 75 78 78 70 68 69 73 73 74 70 71 79 84 78 76 76 80 78 78 74 73 71 69 70 68 65 70
89 69 72 77 85 72 70 68 62 62 80 75 79 79 73 76 84 84 83 79 77 76 76 73 69 70 68 68 64 63 60 58
85 66 82 89 81 92 73 66 83 81 70 66 60 58 56 60 62 63 63 69 75 74 76 77 72 66 62 49 46 48 41 40
71 72 81 95 90 76 70 87 86 64 47 39 37 41 45 46 48 50 60 78 80 69 68 69 65 58 58 45 50 49 47 54
69 74 86 75 73 72 80 78 58 38 41 45 49 52 52 51 62 62 63 79 61 63 61 58 53 59 66 46 44 46 74 67
88 85 77 77 74 81 73 69 55 55 48 52 54 56 54 58 62 70 59 66 71 70 66 61 54 56 71 65 37 35 35 65
90 87 77 65 64 55 55 45 44 54 61 66 58 59 63 68 57 48 48 53 58 64 65 69 62 57 65 73 59 46 57 50
72 73 69 39 44 66 62 57 58 68 72 68 73 64 55 49 39 32 48 59 69 65 62 74 73 64 59 60 70 72 82 66
68 68 69 55 50 67 68 66 66 75 76 64 71 71 45 30 35 52 71 71 72 82 83 82 77 74 67 66 67 69 64 74
52 60 54 56 57 59 60 63 65 62 62 60 56 58 58 64 66 72 77 79 83 85 87 85 83 81 76 84 89 97 97 98
67 72 70 61 62 61 60 57 59 59 60 55 54 48 51 56 65 71 71 74 90 90 85 86 87 86 87 84 90 86 88 84
71 72 66 63 61 58 59 62 59 59 59 58 56 58 61 66 74 78 84 85 89 92 92 88 90 93 92 91 84 80 88 90